This is the latest recevied weather packets stored in our database for station/object VE1DX. If no packets are shown the sender has not sent any weather packets the latest 10 day(s).
| Time | Temp. | Humidity | Pressure | Rain* | Wind** | Luminosity | Snow |
|---|---|---|---|---|---|---|---|
| 1788278116 | 20.56° C | 80% | 1018.3 hPa | 0 mm | - | - | - |
| 1788277816 | 21.11° C | 81% | 1018.3 hPa | 0 mm | - | - | - |
| 1788277516 | 21.11° C | 78% | 1018.4 hPa | 0 mm | - | - | - |
| 1788277216 | 21.11° C | 76% | 1018.3 hPa | 0 mm | - | - | - |
| 1788276916 | 21.67° C | 75% | 1018.4 hPa | 0 mm | - | - | - |
| 1788276616 | 21.67° C | 75% | 1018.4 hPa | 0 mm | - | - | - |
| 1788276316 | 22.22° C | 74% | 1018.4 hPa | 0 mm | - | - | - |
| 1788276025 | 22.22° C | 76% | 1018.4 hPa | 0 mm | - | - | - |
| 1788275716 | 21.67° C | 79% | 1018.4 hPa | 0 mm | - | - | - |
| 1788275416 | 21.11° C | 78% | 1018.3 hPa | 0 mm | - | - | - |
| 1788275126 | 20.56° C | 82% | 1018.4 hPa | 0 mm | - | - | - |
| 1788274816 | 20° C | 82% | 1018.4 hPa | 0 mm | - | - | - |
| 1788274516 | 20° C | 83% | 1018.4 hPa | 0 mm | - | - | - |
| 1788274233 | 20° C | 84% | 1018.4 hPa | 0 mm | - | - | - |
| 1788273916 | 19.44° C | 86% | 1018.4 hPa | 0 mm | - | - | - |
| 1788273616 | 19.44° C | 85% | 1018.5 hPa | 0 mm | - | - | - |
| 1788273327 | 18.89° C | 86% | 1018.5 hPa | 0 mm | - | - | - |
| 1788273016 | 18.89° C | 88% | 1018.5 hPa | 0 mm | - | - | - |
| 1788272716 | 18.89° C | 87% | 1018.5 hPa | 0 mm | - | - | - |
| 1788272416 | 18.89° C | 88% | 1018.5 hPa | 0 mm | - | - | - |
| 1788272116 | 18.89° C | 87% | 1018.5 hPa | 0 mm | - | - | - |
| 1788271816 | 18.89° C | 86% | 1018.5 hPa | 0 mm | - | - | - |
| 1788271516 | 18.89° C | 86% | 1018.4 hPa | 0 mm | - | - | - |
| 1788271216 | 18.89° C | 86% | 1018.5 hPa | 0 mm | - | - | - |
| 1788270916 | 18.89° C | 87% | 1018.4 hPa | 0 mm | - | - | - |
* Rain latest hour (hover to see other rain measurements)
** Current wind speed in m/s (hover to see current wind gust speed)